Previsão horária em Celiny

Hoje, 2 Agosto, Segunda-feira

Tempo Temperatura Precipitação Vento Pressão Humidade
00:00 +17°C° 1.3 mm 4 m/s 729 mmHg 96%
01:00 +16°C° 0 mm 5 m/s 730 mmHg 95%
02:00 +15°C° 0.2 mm 5 m/s 730 mmHg 95%
03:00 +15°C° 0.2 mm 5 m/s 730 mmHg 94%
04:00 +15°C° 0.2 mm 5 m/s 731 mmHg 94%
05:00 +15°C° 0 mm 5 m/s 731 mmHg 92%
06:00 +15°C° 0 mm 4 m/s 732 mmHg 90%
07:00 +15°C° 0 mm 4 m/s 733 mmHg 89%
08:00 +16°C° 0.2 mm 5 m/s 733 mmHg 83%
09:00 +17°C° 0.2 mm 5 m/s 733 mmHg 77%
10:00 +19°C° 0.2 mm 6 m/s 734 mmHg 72%
11:00 +20°C° 0.1 mm 6 m/s 734 mmHg 67%
12:00 +21°C° 0.1 mm 6 m/s 734 mmHg 62%
13:00 +22°C° 0.1 mm 5 m/s 734 mmHg 57%
14:00 +22°C° 0.1 mm 5 m/s 734 mmHg 57%
15:00 +22°C° 0.1 mm 5 m/s 734 mmHg 58%
16:00 +21°C° 0.1 mm 4 m/s 734 mmHg 58%
17:00 +20°C° 0.2 mm 4 m/s 734 mmHg 66%
18:00 +19°C° 0.2 mm 3 m/s 735 mmHg 73%
19:00 +17°C° 0.2 mm 2 m/s 735 mmHg 80%
20:00 +17°C° 0 mm 2 m/s 735 mmHg 82%
21:00 +16°C° 0 mm 2 m/s 735 mmHg 83%
22:00 +15°C° 0 mm 1 m/s 735 mmHg 85%
23:00 +15°C° 0 mm 1 m/s 736 mmHg 86%

Amanhã, 3 Agosto, Terça-feira

Tempo Temperatura Precipitação Vento Pressão Humidade
00:00 +14°C° 0 mm 1 m/s 736 mmHg 87%
01:00 +14°C° 0 mm 1 m/s 736 mmHg 88%
02:00 +14°C° 0 mm 2 m/s 736 mmHg 88%
03:00 +14°C° 0 mm 2 m/s 736 mmHg 88%
04:00 +14°C° 0 mm 2 m/s 736 mmHg 87%
05:00 +15°C° 0 mm 2 m/s 737 mmHg 82%
06:00 +16°C° 0 mm 2 m/s 737 mmHg 77%
07:00 +18°C° 0 mm 2 m/s 737 mmHg 72%
08:00 +19°C° 0 mm 3 m/s 737 mmHg 65%
09:00 +20°C° 0 mm 3 m/s 738 mmHg 57%
10:00 +22°C° 0 mm 3 m/s 738 mmHg 50%
11:00 +22°C° 0 mm 3 m/s 737 mmHg 48%
12:00 +24°C° 0 mm 3 m/s 737 mmHg 46%
13:00 +25°C° 0 mm 3 m/s 737 mmHg 44%
14:00 +25°C° 0 mm 2 m/s 737 mmHg 46%
15:00 +24°C° 0 mm 2 m/s 737 mmHg 47%
16:00 +24°C° 0 mm 2 m/s 736 mmHg 49%
17:00 +23°C° 0 mm 2 m/s 736 mmHg 55%
18:00 +20°C° 0 mm 2 m/s 736 mmHg 61%
19:00 +19°C° 0 mm 2 m/s 736 mmHg 66%
20:00 +18°C° 0.3 mm 2 m/s 736 mmHg 71%
21:00 +17°C° 0.3 mm 2 m/s 736 mmHg 76%
22:00 +16°C° 0.3 mm 2 m/s 736 mmHg 81%
23:00 +16°C° 0.2 mm 2 m/s 736 mmHg 84%

Depois de amanhã, 4 Agosto, Quarta-feira

Tempo Temperatura Precipitação Vento Pressão Humidade
00:00 +16°C° 0.2 mm 2 m/s 736 mmHg 86%
01:00 +15°C° 0.2 mm 2 m/s 736 mmHg 88%
02:00 +15°C° 0.2 mm 1 m/s 736 mmHg 89%
03:00 +14°C° 0.2 mm 1 m/s 736 mmHg 89%
04:00 +14°C° 0.2 mm 1 m/s 736 mmHg 90%
05:00 +15°C° 0.1 mm 1 m/s 736 mmHg 86%
06:00 +18°C° 0.1 mm 1 m/s 736 mmHg 82%
07:00 +19°C° 0.1 mm 1 m/s 736 mmHg 78%
08:00 +21°C° 0 mm 1 m/s 737 mmHg 71%
09:00 +22°C° 0 mm 1 m/s 737 mmHg 64%
10:00 +22°C° 0 mm 0 m/s 737 mmHg 57%
11:00 +23°C° 0.1 mm 0 m/s 736 mmHg 53%
12:00 +24°C° 0.1 mm 0 m/s 736 mmHg 48%
13:00 +27°C° 0.1 mm 1 m/s 736 mmHg 43%
14:00 +27°C° 0 mm 1 m/s 736 mmHg 44%
15:00 +26°C° 0 mm 1 m/s 736 mmHg 45%
16:00 +26°C° 0 mm 1 m/s 736 mmHg 46%
17:00 +24°C° 0.1 mm 1 m/s 736 mmHg 55%
18:00 +23°C° 0.1 mm 1 m/s 736 mmHg 63%
19:00 +21°C° 0.1 mm 1 m/s 735 mmHg 72%
20:00 +20°C° 0.3 mm 1 m/s 735 mmHg 74%
21:00 +20°C° 0.3 mm 1 m/s 735 mmHg 77%
22:00 +19°C° 0.3 mm 1 m/s 735 mmHg 80%
23:00 +18°C° 0 mm 2 m/s 735 mmHg 81%

5 Agosto, Quinta-feira

Tempo Temperatura Precipitação Vento Pressão Humidade
00:00 +17°C° 0 mm 2 m/s 735 mmHg 83%
01:00 +17°C° 0 mm 2 m/s 735 mmHg 84%
02:00 +17°C° 0 mm 2 m/s 734 mmHg 87%
03:00 +17°C° 0 mm 2 m/s 734 mmHg 89%
04:00 +17°C° 0 mm 2 m/s 734 mmHg 92%
05:00 +17°C° 0.3 mm 2 m/s 733 mmHg 93%
06:00 +17°C° 0.3 mm 3 m/s 733 mmHg 94%
07:00 +17°C° 0.3 mm 3 m/s 733 mmHg 94%
08:00 +18°C° 0 mm 3 m/s 732 mmHg 91%
09:00 +19°C° 0 mm 3 m/s 732 mmHg 88%
10:00 +20°C° 0 mm 4 m/s 732 mmHg 84%
11:00 +21°C° 0 mm 3 m/s 731 mmHg 80%
12:00 +22°C° 0 mm 3 m/s 731 mmHg 76%
13:00 +24°C° 0 mm 3 m/s 731 mmHg 71%
14:00 +22°C° 0.5 mm 3 m/s 730 mmHg 75%
15:00 +21°C° 0.5 mm 2 m/s 730 mmHg 80%
16:00 +20°C° 0.5 mm 2 m/s 730 mmHg 84%
17:00 +19°C° 3.3 mm 2 m/s 729 mmHg 88%
18:00 +18°C° 3.3 mm 2 m/s 729 mmHg 93%
19:00 +17°C° 3.3 mm 2 m/s 729 mmHg 97%
20:00 +17°C° 0.6 mm 4 m/s 729 mmHg 96%
21:00 +15°C° 0.6 mm 5 m/s 729 mmHg 95%
22:00 +15°C° 0.6 mm 6 m/s 729 mmHg 94%
23:00 +15°C° 0 mm 6 m/s 729 mmHg 93%

6 Agosto, Sexta-feira

Tempo Temperatura Precipitação Vento Pressão Humidade
00:00 +14°C° 0 mm 6 m/s 729 mmHg 93%
01:00 +14°C° 0 mm 6 m/s 729 mmHg 92%
02:00 +14°C° 0 mm 6 m/s 729 mmHg 91%
03:00 +14°C° 0 mm 6 m/s 729 mmHg 90%
04:00 +14°C° 0 mm 5 m/s 729 mmHg 89%
05:00 +14°C° 0 mm 6 m/s 729 mmHg 87%
06:00 +15°C° 0 mm 6 m/s 730 mmHg 84%
07:00 +15°C° 0 mm 6 m/s 730 mmHg 82%
08:00 +17°C° 0.1 mm 6 m/s 730 mmHg 75%
09:00 +18°C° 0.1 mm 7 m/s 731 mmHg 68%
10:00 +21°C° 0.1 mm 7 m/s 731 mmHg 62%
11:00 +21°C° 0 mm 7 m/s 731 mmHg 59%
12:00 +22°C° 0 mm 7 m/s 731 mmHg 56%
13:00 +23°C° 0 mm 6 m/s 731 mmHg 52%
14:00 +23°C° 0 mm 6 m/s 731 mmHg 52%
15:00 +23°C° 0 mm 5 m/s 732 mmHg 52%
16:00 +23°C° 0 mm 5 m/s 732 mmHg 52%
17:00 +22°C° 0 mm 4 m/s 732 mmHg 58%
18:00 +20°C° 0 mm 3 m/s 732 mmHg 64%
19:00 +19°C° 0 mm 2 m/s 732 mmHg 69%
20:00 +18°C° 0 mm 2 m/s 732 mmHg 72%
21:00 +17°C° 0 mm 2 m/s 732 mmHg 74%
22:00 +17°C° 0 mm 2 m/s 733 mmHg 77%
23:00 +16°C° 0 mm 2 m/s 733 mmHg 78%

7 Agosto, Sábado

Tempo Temperatura Precipitação Vento Pressão Humidade
00:00 +16°C° 0 mm 2 m/s 733 mmHg 79%
01:00 +16°C° 0 mm 2 m/s 733 mmHg 80%
02:00 +15°C° 0 mm 2 m/s 733 mmHg 81%
03:00 +15°C° 0 mm 2 m/s 733 mmHg 83%
04:00 +15°C° 0 mm 2 m/s 733 mmHg 85%
05:00 +16°C° 0 mm 2 m/s 734 mmHg 80%
06:00 +18°C° 0 mm 2 m/s 734 mmHg 75%
07:00 +20°C° 0 mm 2 m/s 735 mmHg 71%
08:00 +21°C° 0 mm 3 m/s 735 mmHg 65%
09:00 +24°C° 0 mm 3 m/s 735 mmHg 59%
10:00 +25°C° 0 mm 3 m/s 735 mmHg 53%
11:00 +26°C° 0 mm 3 m/s 735 mmHg 49%
12:00 +27°C° 0 mm 3 m/s 735 mmHg 45%
13:00 +28°C° 0 mm 3 m/s 735 mmHg 41%
14:00 +28°C° 0 mm 3 m/s 734 mmHg 41%
15:00 +29°C° 0 mm 3 m/s 734 mmHg 41%
16:00 +29°C° 0 mm 2 m/s 734 mmHg 40%
17:00 +27°C° 0 mm 2 m/s 734 mmHg 48%
18:00 +25°C° 0 mm 2 m/s 734 mmHg 55%
19:00 +23°C° 0 mm 2 m/s 733 mmHg 63%
20:00 +21°C° 0 mm 3 m/s 733 mmHg 64%
21:00 +21°C° 0 mm 3 m/s 733 mmHg 66%
22:00 +20°C° 0 mm 3 m/s 733 mmHg 67%
23:00 +19°C° 0 mm 3 m/s 733 mmHg 68%
Mostrar mais

Necessitamos do seu Consentimento

A Meteoprog e os seus Fornecedores de Serviços podem armazenar e aceder a dados pessoais como cookies, identificadores do dispositivo ou outras tecnologias semelhantes existentes no seu dispositivo e processar estes dados para personalizar conteúdos e anúncios, assim como funcionalidades nas redes sociais e análise de tráfego.

  • Armazenar e/ou aceder a informações no seu dispositivo

    Os cookies, identificadores do dispositivo ou outras informações podem ser armazenados ou acedidos no seu dispositivo, para os fins acima indicados.

  • Anúncios e conteúdos personalizados, medição de anúncios e conteúdos, dados sobre o público-alvo e desenvolvimento de produtos

    Os anúncios e os conteúdos podem ser personalizados com base num perfil. Podem ser adicionados dados adicionais para uma maior personalização dos anúncios e dos conteúdos. A eficácia dos anúncios e dos conteúdos pode ser medida. Podem ser obtidas informações sobre o público que visualizou os anúncios e os conteúdos. Estes dados podem ser usados para desenvolver ou melhorar sistemas, softwares ou a experiência do utilizador.

Ao clicar em "Eu concordo”, permitirá o uso de cookies, identificadores do dispositivo e web beacons mencionados ou outras tecnologias semelhantes. As configurações do navegador do seu dispositivo podem ser alteradas.

Para certos fins, podem ser invocados interesses legítimos ao invés de consentimento. Pode ler mais informação sobre este assunto na nossa Política de Privacidade e Cookies.